Weather History for 10400 - April, 2013

Change the Weather History Date:

Tuesday, April 30, 2013

  Actual Average Record
Temperature  
Mean Temperature 46 °F -  
Max Temperature 60 °F 65 °F - ()
Min Temperature 32 °F 47 °F - ()
Degree Days  
Heating Degree Days 19    
Moisture  
Dew Point 35 °F    
Average Humidity 60    
Maximum Humidity 97    
Minimum Humidity 25    
Precipitation  
Precipitation 0.00 in - - ()
Sea Level Pressure  
Sea Level Pressure 30.19 in    
Wind  
Wind Speed 4 mph ()    
Max Wind Speed 13 mph    
Max Gust Speed 21 mph    
Visibility 10.3 miles    
Events Fog    
T = Trace of Precipitation, MM = Missing Value Source: Averaged Metar Reports

Daily Weather History Graph

Daily Weather History Graph

Search for Another Location

Airport or City:

Trip Planner

Search our weather history database for the weather conditions in past years. The results will help you decide how hot, cold, wet, or windy it might be!

Date:

Astronomy

Apr. 30, 2013 Rise Set
Actual Time 6:07 AM CEST 8:54 PM CEST
Civil Twilight 5:29 AM CEST 9:32 PM CEST
Nautical Twilight 4:40 AM CEST 10:21 PM CEST
Astronomical Twilight 3:41 AM CEST 11:21 PM CEST
Moon 1:12 AM CEST (4/30) 10:09 AM CEST (4/30)
Length of Visible Light 16h 02m
Length of Day
14h 46m
Waning Gibbous, 73% of the Moon is Illuminated
Apr 30
Waning Gibbous
May 2
Last Quarter
May 10
New
May 18
First Quarter
May 25
Full

Hourly Weather History & Observations

Time (CEST) Temp. Windchill Dew Point Humidity Pressure Visibility Wind Dir Wind Speed Gust Speed Precip Events Conditions
12:00 AM 40 °F - 38 °F 89% 30.17 in 25 mi NNE 2.2 mph - -   Clear
12:20 AM 41.0 °F - 35.6 °F 81% 30.15 in - Variable 1.2 mph - N/A   Clear
12:50 AM 41.0 °F - 35.6 °F 81% 30.15 in - East 2.3 mph - N/A   Clear
1:00 AM 40 °F - 37 °F 85% 30.17 in 25 mi East 2.2 mph - -   Clear
1:20 AM 41.0 °F 39.0 °F 37.4 °F 87% 30.15 in - East 3.5 mph - N/A   Clear
1:50 AM 39.2 °F - 35.6 °F 87% 30.15 in - ENE 1.2 mph - N/A   Clear
2:00 AM 38 °F - 36 °F 88% 30.18 in 25 mi ENE 2.2 mph - -   Scattered Clouds
2:20 AM 39.2 °F - 35.6 °F 87% 30.15 in - ENE 2.3 mph - N/A   Clear
2:50 AM 37.4 °F - 35.6 °F 93% 30.15 in - ENE 2.3 mph - N/A   Clear
3:00 AM 37 °F - 36 °F 97% 30.19 in 28 mi ENE 2.2 mph - -   Partly Cloudy
3:20 AM 37.4 °F - 35.6 °F 93% 30.15 in - ESE 2.3 mph - N/A   Clear
3:50 AM 37.4 °F - 35.6 °F 93% 30.15 in - NE 2.3 mph - N/A   Clear
4:00 AM 38 °F - 36 °F 90% 30.18 in 28 mi NE 2.2 mph - -   Scattered Clouds
4:20 AM 37.4 °F - 35.6 °F 93% 30.15 in - East 2.3 mph - N/A   Clear
4:50 AM 35.6 °F 32.8 °F 33.8 °F 93% 30.18 in 6.2 mi ESE 3.5 mph - N/A Fog Shallow Fog
5:20 AM 35.6 °F 32.8 °F 33.8 °F 93% 30.18 in 6.2 mi East 3.5 mph - N/A Fog Shallow Fog
5:50 AM 33.8 °F 30.8 °F 32.0 °F 93% 30.18 in 6.2 mi East 3.5 mph - N/A Fog Shallow Fog
6:00 AM 33 °F - 32 °F 93% 30.19 in 25 mi East 4.5 mph - - Fog Patches of Fog
6:20 AM 35.6 °F - 33.8 °F 93% 30.18 in - Variable 2.3 mph - N/A   Clear
6:50 AM 35.6 °F - 33.8 °F 93% 30.18 in - NE 2.3 mph - N/A   Clear
7:00 AM 36 °F - 35 °F 93% 30.20 in 25 mi NE 2.2 mph - -   Scattered Clouds
7:20 AM 37.4 °F - 35.6 °F 93% 30.18 in - NE 2.3 mph - N/A   Clear
7:50 AM 42.8 °F - 39.2 °F 87% 30.18 in - Variable 1.2 mph - N/A   Clear
8:00 AM 43 °F - 38 °F 77% 30.21 in 25 mi ENE 2.2 mph - -   Scattered Clouds
8:20 AM 46.4 °F 45.2 °F 37.4 °F 71% 30.18 in - SE 3.5 mph - N/A   Clear
8:50 AM 48.2 °F - 35.6 °F 62% 30.21 in - SSE 4.6 mph - N/A   Clear
9:00 AM 48 °F - 36 °F 52% 30.22 in 22 mi SSE 4.5 mph - -   Partly Cloudy
9:20 AM 50.0 °F - 35.6 °F 58% 30.21 in - SE 3.5 mph - N/A   Clear
9:50 AM 50.0 °F - 35.6 °F 58% 30.21 in - North 1.2 mph - N/A   Clear
10:00 AM 51 °F - 35 °F 41% 30.22 in 22 mi NE 2.2 mph - -   Mostly Cloudy
10:20 AM 51.8 °F - 35.6 °F 54% 30.21 in - Variable 2.3 mph - N/A   Clear
10:50 AM 51.8 °F - 35.6 °F 54% 30.21 in - NNE 1.2 mph - N/A   Clear
11:20 AM 53.6 °F - 37.4 °F 54% 30.21 in - Variable 3.5 mph - N/A   Clear
11:50 AM 53.6 °F - 37.4 °F 54% 30.21 in - North 4.6 mph - N/A   Clear
12:00 PM 54 °F - 36 °F 38% 30.22 in 22 mi NNW 6.7 mph - -   Scattered Clouds
12:20 PM 55.4 °F - 35.6 °F 47% 30.18 in - NNW 4.6 mph - N/A   Clear
12:50 PM 55.4 °F - 35.6 °F 47% 30.18 in - Variable 3.5 mph - N/A   Clear
1:00 PM 56 °F - 34 °F 32% 30.20 in 12 mi NW 4.5 mph - -   Scattered Clouds
1:20 PM 57.2 °F - 32.0 °F 38% 30.18 in 6.2 mi North 9.2 mph - N/A   Mostly Cloudy
1:50 PM 57.2 °F - 32.0 °F 38% 30.18 in 6.2 mi North 8.1 mph - N/A   Mostly Cloudy
2:00 PM 56 °F - 36 °F 34% 30.20 in 16 mi ENE 8.9 mph - -   Scattered Clouds
2:20 PM 57.2 °F - 33.8 °F 41% 30.18 in 6.2 mi North 8.1 mph - N/A   Mostly Cloudy
2:50 PM 57.2 °F - 32.0 °F 38% 30.18 in 6.2 mi North 9.2 mph - N/A   Mostly Cloudy
3:00 PM 57 °F - 33 °F 27% 30.20 in 16 mi NNE 8.9 mph - -   Scattered Clouds
3:20 PM 57.2 °F - 33.8 °F 41% 30.18 in 6.2 mi North 11.5 mph - N/A   Mostly Cloudy
3:50 PM 57.2 °F - 32.0 °F 38% 30.18 in 6.2 mi NE 8.1 mph - N/A   Mostly Cloudy
4:00 PM 58 °F - 33 °F 27% 30.20 in 16 mi NNE 8.9 mph - -   Mostly Cloudy
4:20 PM 59.0 °F - 32.0 °F 36% 30.18 in 6.2 mi NNE 9.2 mph 20.7 mph N/A   Mostly Cloudy
4:50 PM 59.0 °F - 35.6 °F 42% 30.18 in - NE 9.2 mph - N/A   Clear
5:20 PM 59.0 °F - 32.0 °F 36% 30.18 in - NE 10.4 mph - N/A   Clear
5:50 PM 59.0 °F - 32.0 °F 36% 30.18 in - NNE 12.7 mph - N/A   Clear
6:00 PM 58 °F - 32 °F 25% 30.19 in 16 mi NNE 8.9 mph - -   Partly Cloudy
6:20 PM 57.2 °F - 33.8 °F 41% 30.18 in - NE 10.4 mph - N/A   Clear
6:50 PM 55.4 °F - 32.0 °F 41% 30.18 in - NE 10.4 mph - N/A   Clear
7:00 PM 55 °F - 33 °F 31% 30.19 in 16 mi NE 6.7 mph - -   Partly Cloudy
7:20 PM 55.4 °F - 35.6 °F 47% 30.18 in - ENE 8.1 mph - N/A   Clear
7:50 PM 55.4 °F - 33.8 °F 44% 30.18 in - ENE 9.2 mph - N/A   Clear
8:00 PM 55 °F - 35 °F 34% 30.21 in 16 mi ENE 6.7 mph - -   Mostly Cloudy
8:20 PM 55.4 °F - 32.0 °F 41% 30.18 in - NE 8.1 mph - N/A   Clear
8:50 PM 53.6 °F - 33.8 °F 47% 30.21 in - NE 9.2 mph - N/A   Clear
9:00 PM 54 °F - 33 °F 32% 30.22 in 16 mi NE 6.7 mph - -   Scattered Clouds
9:20 PM 53.6 °F - 32.0 °F 44% 30.21 in - NE 6.9 mph - N/A   Clear
9:50 PM 53.6 °F - 32.0 °F 44% 30.21 in - NE 6.9 mph - N/A   Clear
10:00 PM 53 °F - 32 °F 33% 30.23 in 25 mi NE 4.5 mph - -   Mostly Cloudy
10:20 PM 53.6 °F - 33.8 °F 47% 30.21 in - NE 6.9 mph - N/A   Clear
10:50 PM 51.8 °F - 33.8 °F 50% 30.21 in - NNE 6.9 mph - N/A   Clear
11:20 PM 51.8 °F - 37.4 °F 58% 30.21 in - North 9.2 mph - N/A   Clear
11:50 PM 51.8 °F - 37.4 °F 58% 30.21 in - NNE 12.7 mph - N/A   Clear